STARLINK-6303, 56393

Orbit data source: Space-Track

STARLINK-6303, 56393 is a payload satellite owned by SpaceX/Seattle (US) in LEO that was launched on Thu, 04 May 2023 UTC via an FALCON 9 launch vehicle from the Air Force Eastern Test Range (AFETR). Payload-class satellites include a variety of spacecraft equipped with specific instruments for various scientific and technological missions. These include communications satellites like Starlink; space stations such as the ISS; scientific satellites like the Hubble; Earth observation satellites from companies like Planet Labs, Umbra, and HawkEye 360; GPS; miniature CubeSats for education and research; and military/defense satellites.

Loading next visibility...
Identifier
56393, 2023-061V
Orbit
LEO
Country
Flag of USUS
Related business
Manufacturer
SpaceX/Seattle
Mission
Operational Commercial Communications
Bus & Motor
STARLINK, Unknown motor
Mass
305 kg wet, ~290 kg dry
Launch date (UTC)
2023-05-04 (3 years ago)
Launch vehicle
FALCON 9
Launch site
Air Force Eastern Test Range (AFETR)
Object type
Payload
Rocket body
Debris
Shape & HBR
Box + 1 Pan, 10.1 m
Radar Cross Section
11.087 m², Large (>1 m²)

Expand to show TLE details & history
Last TLE update: 2 days ago

TLE from 2 days ago
0 STARLINK-6303
1 56393U 23061V   26171.43905240 -.00000108  00000-0  56153-5 0  9997
2 56393  43.0042 337.6391 0001555 271.9259  88.1415 15.27577466172461
Epoch: 2026-06-20T10:32Z
TLE epoch observation values (Epoch: 2026-06-20T10:32:14.127Z)
Latitude
0.00001°
Longitude
-89.07341°
Altitude
482.798 km
Speed
7.626 km/s
True Right ascension
22h 30m 33s
True Declination
0° 00' 00"
Sunlit
Object was in daylight at epoch
Visualization orbit readout
Latitude
Unknown
Longitude
Unknown
Altitude
Unknown
Speed
Unknown
Apparent Right ascension
Unknown
Apparent Declination
Unknown
Sunlit
N/A
Visualization observer readout
Local Sidereal Time
00:39:33
Azimuth
Unknown
Elevation
Unknown
Doppler factor
Unknown
Orbital elements
Apogee altitude
486.068 km
Perigee altitude
483.934 km
Semi-major axis
6,863.138 km
Eccentricity
0.00016
Inclination
43.0042°
RAAN
337.6391°
Arg. of periapsis
271.9259°
True anomaly
88.15931°
Mean anomaly
88.1415°
Eccentric anomaly
88.1504°
Mean motion
3.81732 °/min
Orbital period
94.31 mins
BSTAR
0.0000056153
Loading maneuver chart data...
Computing Atmospheric mass density...
Loading historical data...
Loading historical data...
Loading historical data...
Loading historical data...
Loading historical data...
Loading historical data...
Loading historical data...

Documentation

Showing up to 5 results
|